Marshalltown, IA

7:36 PM CDT on June 28, 2017 (GMT -0500)
Marshalltown Municipal

Weather History for KMIW - April, 2013

Change the Weather History Date:

Monday, April 22, 2013

  Actual Average Record
Temperature  
Mean Temperature 52 °F 51 °F  
Max Temperature 66 °F 63 °F 79 °F (2001)
Min Temperature 38 °F 40 °F 30 °F (2002)
Degree Days  
Heating Degree Days 13 14  
Month to date heating degree days 504 386  
Since 1 July heating degree days 6650 6687  
Cooling Degree Days 0 0  
Month to date cooling degree days 0 0  
Year to date cooling degree days 0 0  
Growing Degree Days 4 (Base 50)    
Moisture  
Dew Point 46 °F    
Average Humidity 74    
Maximum Humidity 100    
Minimum Humidity 48    
Precipitation  
Precipitation 0.17 in 0.13 in 1.01 in (2007)
Month to date precipitation 5.85 2.20  
Sea Level Pressure  
Sea Level Pressure 30.05 in    
Wind  
Wind Speed 11 mph (South)    
Max Wind Speed 32 mph    
Max Gust Speed 39 mph    
Visibility 10 miles    
Events Rain    
T = Trace of Precipitation, MM = Missing Value Source: NWS Daily Summary

Daily Weather History Graph

Daily Weather History Graph

Search for Another Location

Airport or City:

Trip Planner

Search our weather history database for the weather conditions in past years. The results will help you decide how hot, cold, wet, or windy it might be!

Date:

Astronomy

Apr. 22, 2013 Rise Set
Actual Time 6:19 AM CDT 8:01 PM CDT
Civil Twilight 5:50 AM CDT 8:30 PM CDT
Nautical Twilight 5:14 AM CDT 9:06 PM CDT
Astronomical Twilight 4:35 AM CDT 9:45 PM CDT
Moon 4:47 PM CDT (4/22) 4:18 AM CDT (4/22)
Length of Visible Light 14h 40m
Length of Day
13h 41m
Waxing Gibbous, 88% of the Moon is Illuminated
Apr 22
Waxing Gibbous
Apr 25
Full
May 2
Last Quarter
May 9
New
May 17
First Quarter

Hourly Weather History & Observations

Time (CDT) Temp. Windchill Dew Point Humidity Pressure Visibility Wind Dir Wind Speed Gust Speed Precip Events Conditions
12:27 AM 51.8 °F - 44.6 °F 76% 30.18 in 6.0 mi SW 16.1 mph 24.2 mph 0.03 in Rain Rain
12:38 AM 51.8 °F - 46.4 °F 82% 30.18 in 10.0 mi SW 8.1 mph - 0.03 in Rain Light Rain
12:53 AM 51.1 °F - 46.9 °F 86% 30.18 in 10.0 mi SW 6.9 mph - 0.04 in Rain Light Rain
1:53 AM 48.9 °F - 48.0 °F 97% 30.16 in 9.0 mi SE 5.8 mph - 0.05 in Rain Light Rain
2:53 AM 48.0 °F - 48.0 °F 100% 30.14 in 9.0 mi SE 4.6 mph - 0.02 in Rain Light Rain
3:53 AM 48.0 °F - 46.9 °F 96% 30.13 in 10.0 mi SSE 5.8 mph - 0.00 in Rain Light Rain
4:53 AM 48.0 °F - 46.0 °F 93% 30.11 in 10.0 mi SE 5.8 mph - 0.01 in Rain Light Rain
5:53 AM 48.0 °F - 45.0 °F 89% 30.11 in 10.0 mi SE 6.9 mph - 0.00 in   Overcast
6:53 AM 46.9 °F - 44.1 °F 90% 30.11 in 10.0 mi SE 8.1 mph - N/A   Mostly Cloudy
7:53 AM 48.9 °F - 44.1 °F 83% 30.11 in 10.0 mi SE 9.2 mph - N/A   Clear
8:53 AM 50.0 °F - 44.1 °F 80% 30.10 in 10.0 mi SSE 9.2 mph - N/A   Mostly Cloudy
9:53 AM 53.1 °F - 46.0 °F 77% 30.09 in 10.0 mi SSE 6.9 mph - N/A   Mostly Cloudy
10:53 AM 55.0 °F - 45.0 °F 69% 30.10 in 10.0 mi South 11.5 mph - N/A   Overcast
11:53 AM 55.9 °F - 45.0 °F 67% 30.08 in 10.0 mi South 8.1 mph - N/A   Overcast
12:53 PM 57.9 °F - 45.0 °F 62% 30.04 in 10.0 mi SSE 11.5 mph - N/A   Mostly Cloudy
1:53 PM 60.1 °F - 45.0 °F 57% 30.02 in 10.0 mi South 11.5 mph - N/A   Overcast
2:53 PM 64.0 °F - 46.0 °F 52% 29.98 in 10.0 mi SSE 13.8 mph - N/A   Scattered Clouds
3:53 PM 64.9 °F - 45.0 °F 48% 29.95 in 10.0 mi SSE 16.1 mph - N/A   Mostly Cloudy
4:53 PM 64.9 °F - 45.0 °F 48% 29.92 in 10.0 mi SSE 18.4 mph 25.3 mph N/A   Mostly Cloudy
5:53 PM 63.0 °F - 44.1 °F 50% 29.91 in 10.0 mi SSE 18.4 mph 28.8 mph N/A   Mostly Cloudy
6:53 PM 61.0 °F - 45.0 °F 56% 29.92 in 10.0 mi South 12.7 mph 25.3 mph 0.00 in Rain Light Rain
7:10 PM 53.6 °F - 48.2 °F 82% 29.95 in 5.0 mi SW 21.9 mph 34.5 mph 0.03 in Rain Light Rain
7:53 PM 53.1 °F - 50.0 °F 89% 29.97 in 10.0 mi SSW 11.5 mph - 0.05 in Rain Light Rain
8:53 PM 52.0 °F - 48.0 °F 86% 30.00 in 10.0 mi SW 16.1 mph - 0.02 in Rain Light Rain
9:49 PM 48.2 °F - 46.4 °F 93% 30.01 in 10.0 mi WNW 12.7 mph - 0.01 in Rain Light Rain
9:53 PM 46.9 °F - 46.0 °F 97% 30.02 in 10.0 mi WNW 16.1 mph - 0.01 in Rain Light Rain
10:00 PM 46.4 °F 40.7 °F 44.6 °F 93% 30.01 in 10.0 mi WNW 12.7 mph - 0.00 in Rain Light Rain
10:53 PM 43.0 °F 38.2 °F 42.1 °F 97% 30.03 in 10.0 mi NW 8.1 mph - 0.01 in Rain Light Rain
11:53 PM 39.9 °F 32.5 °F 39.0 °F 97% 30.03 in 10.0 mi NNW 12.7 mph - 0.00 in   Overcast